Погода в Стэнфорде

США     37°25′32″N   122°10′02″W
темп.,
°C
ветер,
м/с
пор.,
м/с
влажн.,
%
обл.,
%
осадки,
мм/ч
давл.,
гПа
погр.,
м
26 сентября, вс
вс2623:00+12зюз129140 0.0 1016106
02:00+12зюз119047 0.0 1017127
05:00+11зюз1192100 0.0 101632
08:00+12з11883 0.0 101765
11:00+18сз22620 0.0 1017343
14:00+19сз34570 0.0 1016390
17:00+18зсз34600 0.0 1015280
20:00+12з22857 0.0 101759
27 сентября, пн
пн2723:00+12юз128685 0.0 101746
02:00+12зюз118728 0.0 101727
05:00+12з129411 0.0 101732
08:00+13зюз11933 0.0 101848
11:00+18сз347130 0.0 1018523
14:00+20зсз456620 0.0 1016612
17:00+19з46705 0.0 1016431
20:00+15з239273 0.0 1017121
28 сентября, вт
вт2823:00+14з368413 0.0 1018245
02:00+12зсз358997 0.0 101894
05:00+10з239177 0.0 101869
08:00+10з238648 0.0 1019100
11:00+15ссз34600 0.0 1018383
14:00+18сз564427 0.0 1016711
17:00+17з464569 0.0 1015312
20:00+10юз33793 0.0 101564
29 сентября, ср
ср2923:00+9юз3386100 0.0 101575
02:00+9ю228164 0.0 101433
05:00+10юз22761 0.0 101416
08:00+12юз11665 0.0 101521
11:00+18с2242100 0.0 1016346
14:00+19сз4435100 0.0 1014553
17:00+20зсз343698 0.0 1014289
20:00+12зюз226860 0.0 101533
30 сентября, чт
чт3023:00+11юз226547 0.0 101622
02:00+12ююз115248 0.0 101514
05:00+12в01505 0.0 101510
08:00+14в01475 0.0 101617
11:00+20с21325 0.0 1016239
14:00+22ссз32285 0.0 1015420
17:00+23зсз44260 0.0 1014341
20:00+16зюз11430 0.0 101414